WORLDVIEW-4 (41848 NORAD) Tracking and Keplerian Element Data

This shows tracking and keplerian element data for the satellite.

Feedback or suggestion? Click here.




ElementValue
Catalog41848
NameWORLDVIEW-4
Epoch Orbit27992
Epoch Day334.19880693
Epoch Year2021
RAAN148.0092
Inclination97.765
Eccentricity0.0015228
Argument of Perigee225.9629
Mean Anonmoly247.4619
Mean Motion16.60370829
Decay Rate0.07289157
L11 41848U 16067A 21334.19880693 .07289157 29045-5 20786-4 0 9993
L22 41848 97.7650 148.0092 0015228 225.9629 247.4619 16.60370829279922



Live tracking and technical data element details for WORLDVIEW-4 (NORAD 41848). WORLDVIEW-4 can be tracked NOW for your location showing map with azimuth and elevation plus other details from your city location.







IsCatalogInMostPopularTable: catalog: 41848, numindb: 593
Update: records affected: 1



GetName: 41848 WORLDVIEW-4

Hit Count: updated at: Thu, 15 May 2025 09:01:43 GMT